When you browse on this site, cookies collect data to enhance your experience and personalize the content and advertising you see.
Visit our Privacy Policy to learn more. By continuing to use the site, you agree to this use of cookies and data.
  • In Hungary
  • List of Countries
  • For 7 days
  • Water Temperature
  • Satellite Maps
  • Weather Map
  • News
  • Weather Widgets
  • user-avatar
    Login

    Hourly Weather Concordia

    Today, 22 July, Monday

    Time Temperature Precipitation Wind Pressure Humidity
    00:00 +22°C° 0.5 mm 5 mps 753 mmHg 71%
    01:00 +20°C° 0.5 mm 5 mps 753 mmHg 82%
    02:00 +17°C° 0 mm 5 mps 754 mmHg 92%
    03:00 +16°C° 0.6 mm 5 mps 754 mmHg 93%
    04:00 +16°C° 0.6 mm 5 mps 755 mmHg 93%
    05:00 +15°C° 0.6 mm 6 mps 755 mmHg 94%
    06:00 +15°C° 0.6 mm 6 mps 756 mmHg 93%
    07:00 +14°C° 0.6 mm 6 mps 756 mmHg 92%
    08:00 +13°C° 0.6 mm 6 mps 757 mmHg 91%
    09:00 +13°C° 0.2 mm 6 mps 757 mmHg 90%
    10:00 +13°C° 0.2 mm 6 mps 757 mmHg 88%
    11:00 +13°C° 0.2 mm 6 mps 758 mmHg 87%
    12:00 +13°C° 0.4 mm 6 mps 758 mmHg 88%
    13:00 +13°C° 0.4 mm 6 mps 757 mmHg 89%
    14:00 +13°C° 0.4 mm 6 mps 757 mmHg 90%
    15:00 +13°C° 0.2 mm 6 mps 758 mmHg 90%
    16:00 +13°C° 0.2 mm 6 mps 758 mmHg 90%
    17:00 +13°C° 0.2 mm 6 mps 758 mmHg 89%
    18:00 +11°C° 0.3 mm 7 mps 759 mmHg 89%
    19:00 +11°C° 0.3 mm 7 mps 759 mmHg 88%
    20:00 +10°C° 0.3 mm 8 mps 760 mmHg 88%
    21:00 +10°C° 0.5 mm 7 mps 760 mmHg 88%
    22:00 +9°C° 0.5 mm 7 mps 760 mmHg 88%
    23:00 +9°C° 0.5 mm 7 mps 761 mmHg 89%

    Tomorrow, 23 July, Tuesday

    Time Temperature Precipitation Wind Pressure Humidity
    00:00 +9°C° 0.6 mm 7 mps 761 mmHg 89%
    01:00 +9°C° 0.6 mm 6 mps 760 mmHg 90%
    02:00 +9°C° 0.6 mm 6 mps 760 mmHg 90%
    03:00 +9°C° 0.8 mm 6 mps 760 mmHg 91%
    04:00 +8°C° 0.8 mm 7 mps 760 mmHg 91%
    05:00 +8°C° 0.8 mm 7 mps 761 mmHg 91%
    06:00 +9°C° 0.3 mm 7 mps 761 mmHg 92%
    07:00 +9°C° 0.3 mm 7 mps 761 mmHg 92%
    08:00 +9°C° 0.3 mm 6 mps 761 mmHg 92%
    09:00 +9°C° 0.9 mm 6 mps 761 mmHg 93%
    10:00 +9°C° 0.9 mm 6 mps 761 mmHg 93%
    11:00 +9°C° 0.9 mm 6 mps 762 mmHg 93%
    12:00 +9°C° 0.7 mm 6 mps 761 mmHg 93%
    13:00 +9°C° 0.7 mm 6 mps 761 mmHg 94%
    14:00 +10°C° 0.7 mm 6 mps 761 mmHg 94%
    15:00 +9°C° 0.5 mm 6 mps 761 mmHg 94%
    16:00 +9°C° 0.5 mm 7 mps 761 mmHg 94%
    17:00 +9°C° 0.5 mm 7 mps 761 mmHg 94%
    18:00 +9°C° 0.2 mm 7 mps 762 mmHg 93%
    19:00 +9°C° 0.2 mm 7 mps 762 mmHg 93%
    20:00 +9°C° 0.2 mm 7 mps 763 mmHg 93%
    21:00 +9°C° 0.1 mm 6 mps 763 mmHg 93%
    22:00 +9°C° 0.1 mm 6 mps 763 mmHg 93%
    23:00 +9°C° 0.1 mm 6 mps 763 mmHg 93%

    Day after tomorrow, 24 July, Wednesday

    Time Temperature Precipitation Wind Pressure Humidity
    00:00 +9°C° 0.2 mm 6 mps 764 mmHg 93%
    01:00 +9°C° 0.2 mm 6 mps 764 mmHg 92%
    02:00 +9°C° 0.2 mm 6 mps 764 mmHg 92%
    03:00 +8°C° 0.1 mm 6 mps 764 mmHg 91%
    04:00 +8°C° 0.1 mm 6 mps 764 mmHg 90%
    05:00 +8°C° 0.1 mm 6 mps 765 mmHg 89%
    06:00 +8°C° 0.1 mm 6 mps 765 mmHg 88%
    07:00 +7°C° 0.1 mm 6 mps 766 mmHg 87%
    08:00 +7°C° 0.1 mm 6 mps 766 mmHg 86%
    09:00 +7°C° 0 mm 6 mps 767 mmHg 83%
    10:00 +8°C° 0 mm 6 mps 767 mmHg 81%
    11:00 +8°C° 0 mm 5 mps 767 mmHg 79%
    12:00 +8°C° 0 mm 5 mps 767 mmHg 77%
    13:00 +8°C° 0 mm 5 mps 766 mmHg 75%
    14:00 +8°C° 0 mm 4 mps 766 mmHg 74%
    15:00 +8°C° 0 mm 4 mps 767 mmHg 73%
    16:00 +8°C° 0 mm 4 mps 767 mmHg 73%
    17:00 +8°C° 0 mm 5 mps 767 mmHg 72%
    18:00 +8°C° 0 mm 4 mps 767 mmHg 72%
    19:00 +8°C° 0 mm 4 mps 767 mmHg 71%
    20:00 +8°C° 0 mm 4 mps 768 mmHg 70%
    21:00 +8°C° 0 mm 4 mps 768 mmHg 71%
    22:00 +8°C° 0 mm 4 mps 767 mmHg 72%
    23:00 +8°C° 0 mm 5 mps 767 mmHg 73%

    25 July, Thursday

    Time Temperature Precipitation Wind Pressure Humidity
    00:00 +8°C° 0.1 mm 5 mps 767 mmHg 77%
    01:00 +8°C° 0.1 mm 5 mps 767 mmHg 80%
    02:00 +7°C° 0.1 mm 5 mps 767 mmHg 84%
    03:00 +7°C° 1.1 mm 5 mps 766 mmHg 87%
    04:00 +7°C° 1.1 mm 5 mps 766 mmHg 90%
    05:00 +7°C° 1.1 mm 4 mps 766 mmHg 93%
    06:00 +7°C° 2 mm 5 mps 766 mmHg 94%
    07:00 +7°C° 2 mm 5 mps 766 mmHg 94%
    08:00 +7°C° 2 mm 6 mps 766 mmHg 95%
    09:00 +7°C° 1.9 mm 6 mps 766 mmHg 95%
    10:00 +8°C° 1.9 mm 6 mps 766 mmHg 95%
    11:00 +8°C° 1.9 mm 6 mps 765 mmHg 94%
    12:00 +8°C° 1.3 mm 6 mps 765 mmHg 95%
    13:00 +9°C° 1.3 mm 6 mps 764 mmHg 95%
    14:00 +9°C° 1.3 mm 5 mps 763 mmHg 95%
    15:00 +9°C° 1.8 mm 5 mps 763 mmHg 95%
    16:00 +9°C° 1.8 mm 5 mps 762 mmHg 96%
    17:00 +10°C° 1.8 mm 4 mps 762 mmHg 96%
    18:00 +10°C° 2.7 mm 4 mps 762 mmHg 96%
    19:00 +9°C° 2.7 mm 5 mps 762 mmHg 96%
    20:00 +9°C° 2.7 mm 5 mps 762 mmHg 97%
    21:00 +10°C° 0.6 mm 4 mps 762 mmHg 96%
    22:00 +11°C° 0.6 mm 4 mps 762 mmHg 96%
    23:00 +11°C° 0.6 mm 4 mps 762 mmHg 96%

    26 July, Friday

    Time Temperature Precipitation Wind Pressure Humidity
    00:00 +11°C° 0.2 mm 4 mps 761 mmHg 96%
    01:00 +11°C° 0.2 mm 4 mps 761 mmHg 96%
    02:00 +11°C° 0.2 mm 4 mps 761 mmHg 97%
    03:00 +11°C° 0.1 mm 4 mps 761 mmHg 96%
    04:00 +11°C° 0.1 mm 4 mps 761 mmHg 96%
    05:00 +11°C° 0.1 mm 3 mps 761 mmHg 96%
    06:00 +11°C° 0 mm 3 mps 761 mmHg 96%
    07:00 +11°C° 0 mm 3 mps 762 mmHg 96%
    08:00 +11°C° 0 mm 3 mps 763 mmHg 96%
    09:00 +11°C° 0 mm 3 mps 763 mmHg 95%
    10:00 +11°C° 0 mm 3 mps 763 mmHg 94%
    11:00 +11°C° 0 mm 4 mps 764 mmHg 93%
    12:00 +12°C° 0 mm 4 mps 764 mmHg 91%
    13:00 +13°C° 0 mm 4 mps 764 mmHg 89%
    14:00 +13°C° 0 mm 4 mps 764 mmHg 87%
    15:00 +13°C° 0.1 mm 3 mps 764 mmHg 89%
    16:00 +13°C° 0.1 mm 3 mps 764 mmHg 90%
    17:00 +13°C° 0.1 mm 2 mps 765 mmHg 91%
    18:00 +13°C° 0 mm 2 mps 765 mmHg 92%
    19:00 +13°C° 0 mm 2 mps 766 mmHg 92%
    20:00 +13°C° 0 mm 1 mps 766 mmHg 92%
    21:00 +12°C° 0 mm 1 mps 767 mmHg 92%
    22:00 +12°C° 0 mm 1 mps 767 mmHg 92%
    23:00 +11°C° 0 mm 1 mps 767 mmHg 92%

    27 July, Saturday

    Time Temperature Precipitation Wind Pressure Humidity
    00:00 +11°C° 0 mm 1 mps 767 mmHg 93%
    01:00 +10°C° 0 mm 1 mps 767 mmHg 93%
    02:00 +10°C° 0 mm 1 mps 767 mmHg 94%
    03:00 +10°C° 0 mm 1 mps 767 mmHg 94%
    04:00 +9°C° 0 mm 1 mps 767 mmHg 94%
    05:00 +9°C° 0 mm 1 mps 767 mmHg 95%
    06:00 +10°C° 0 mm 1 mps 768 mmHg 94%
    07:00 +9°C° 0 mm 0 mps 768 mmHg 93%
    08:00 +10°C° 0 mm 0 mps 768 mmHg 92%
    09:00 +11°C° 0 mm 0 mps 768 mmHg 86%
    10:00 +13°C° 0 mm 0 mps 768 mmHg 80%
    11:00 +15°C° 0 mm 0 mps 768 mmHg 74%
    12:00 +15°C° 0 mm 0 mps 768 mmHg 71%
    13:00 +16°C° 0 mm 0 mps 767 mmHg 67%
    14:00 +16°C° 0 mm 0 mps 767 mmHg 64%
    15:00 +16°C° 0 mm 1 mps 767 mmHg 68%
    16:00 +15°C° 0 mm 1 mps 767 mmHg 72%
    17:00 +14°C° 0 mm 1 mps 767 mmHg 77%
    18:00 +13°C° 0 mm 1 mps 767 mmHg 79%
    19:00 +12°C° 0 mm 2 mps 767 mmHg 82%
    20:00 +10°C° 0 mm 2 mps 767 mmHg 84%
    21:00 +10°C° 0 mm 2 mps 767 mmHg 85%
    22:00 +10°C° 0 mm 2 mps 767 mmHg 87%
    23:00 +9°C° 0 mm 2 mps 767 mmHg 88%
    Show more